1515963600.66,18705,8.56,73334.8,-15.23,-47.09,-47.31,0,*65
1515963601.92,18706,8.56,73338.8,-15.23,-47.03,-47.23,0,*6F
1515963603.16,18707,8.56,73334.8,-15.23,-47.03,-47.09,0,*66
1515963604.43,18708,8.56,73336.3,-15.21,-46.97,-47.03,0,*6D
1515963605.7,18709,8.56,73338.3,-15.21,-46.97,-47.03,0,*6C
1515963606.96,18710,8.56,73338.3,-15.23,-47.03,-47.03,0,*6A
1515963608.21,18711,8.56,73338.3,-15.21,-46.97,-46.97,0,*69
1515963609.45,18712,8.56,73336.5,-15.23,-47.09,-47.23,0,*60
1515963610.69,18713,8.56,73332.8,-15.23,-47.03,-47.17,0,*6C
1515963611.93,18714,8.56,73336.8,-15.23,-47.09,-47.23,0,*66
1515963613.18,18715,8.56,73336.3,-15.23,-47.09,-47.23,0,*67
1515963614.45,18716,8.56,73334.8,-15.23,-47.03,-47.23,0,*6E
1515963615.69,18717,8.56,73336.5,-15.23,-47.09,-47.23,0,*65
1515963616.93,18718,8.56,73336.3,-15.23,-46.89,-47.09,0,*6B
1515963618.15,18719,8.56,73336.5,-15.23,-47.09,-47.31,0,*68
1515963619.4,18720,8.56,73334.8,-15.23,-47.09,-47.23,0,*61
1515963620.61,18721,8.56,73338.8,-15.25,-47.09,-47.09,0,*6E
1515963621.87,18722,8.56,73336.3,-15.25,-47.03,-47.23,0,*6F
1515963623.12,18723,8.56,73338.5,-15.23,-47.09,-47.23,0,*62
1515963624.37,18724,8.56,73336.3,-15.21,-46.97,-46.97,0,*6F
1515963625.63,18725,8.56,73334.0,-15.23,-47.03,-47.03,0,*6C
1515963626.9,18726,8.56,73336.3,-15.23,-46.89,-46.89,0,*6F
1515963628.14,18727,8.56,73336.0,-15.23,-46.89,-47.09,0,*67
1515963629.41,18728,8.56,73336.3,-15.23,-46.89,-47.03,0,*62
1515963630.68,18729,8.56,73336.0,-15.23,-47.03,-47.23,0,*62
1515963631.94,18730,8.56,73334.5,-15.23,-47.03,-47.23,0,*6A
1515963633.18,18731,8.56,73336.5,-15.23,-47.03,-47.31,0,*68
1515963634.4,18732,8.56,73338.8,-15.23,-47.09,-47.31,0,*61
1515963635.62,18733,8.56,73332.0,-15.23,-47.09,-47.31,0,*60
1515963636.89,18734,8.56,73334.0,-15.23,-47.03,-47.23,0,*6E
1515963638.1,18735,8.56,73336.3,-15.23,-47.09,-47.09,0,*6D
1515963639.36,18736,8.56,73332.8,-15.25,-47.03,-47.03,0,*68
1515963640.62,18737,8.56,73332.0,-15.25,-47.03,-47.03,0,*69
1515963641.88,18738,8.56,73336.5,-15.25,-46.89,-47.03,0,*65
1515963643.15,18739,8.56,73336.8,-15.25,-46.89,-47.03,0,*64
1515963644.41,18740,8.56,73336.3,-15.23,-47.03,-47.03,0,*6F
1515963645.65,18741,8.56,73332.3,-15.23,-46.89,-47.09,0,*67
1515963646.89,18742,8.56,73334.8,-15.25,-47.03,-47.09,0,*61
1515963648.12,18743,8.56,73336.8,-15.23,-47.03,-47.09,0,*66
1515963649.37,18744,8.5,73332.3,-15.23,-47.03,-47.31,0,*6A
1515963650.6,18745,8.56,73338.5,-15.23,-47.03,-47.09,0,*60
1515963651.82,18746,8.56,73332.0,-15.25,-47.09,-47.09,0,*6F
1515963653.07,18747,8.56,73336.5,-15.25,-47.03,-47.03,0,*6E
1515963654.31,18748,8.56,73334.0,-15.25,-46.83,-47.03,0,*68
1515963655.58,18749,8.56,73334.3,-15.25,-46.89,-47.03,0,*63
1515963656.82,18750,8.56,73334.3,-15.23,-47.03,-47.09,0,*64
1515963658.05,18751,8.5,73334.0,-15.23,-47.03,-47.09,0,*65
1515963659.32,18752,8.56,73336.0,-15.23,-47.03,-47.23,0,*6E
1515963660.58,18753,8.56,73334.5,-15.23,-47.03,-47.03,0,*6D
1515963661.84,18754,8.56,73334.5,-15.23,-46.89,-47.03,0,*69
1515963663.08,18755,8.56,73332.3,-15.23,-47.03,-47.09,0,*61
1515963664.32,18756,8.56,73338.0,-15.25,-47.03,-47.09,0,*64
1515963665.55,18757,8.56,73336.5,-15.25,-47.03,-47.09,0,*65
1515963666.82,18758,8.56,73334.8,-15.25,-47.03,-47.23,0,*62
1515963668.08,18759,8.56,73336.3,-15.25,-46.89,-47.03,0,*62
1515963669.35,18760,8.56,73334.5,-15.25,-46.89,-47.03,0,*68
1515963670.59,18761,8.56,73336.5,-15.25,-46.89,-47.09,0,*63
1515963671.83,18762,8.56,73336.3,-15.23,-47.03,-47.09,0,*65
1515963673.07,18763,8.56,73334.3,-15.23,-46.89,-47.09,0,*67
1515963674.33,18764,8.56,73336.5,-15.23,-47.03,-47.03,0,*69
1515963675.59,18765,8.56,73340.5,-15.25,-47.03,-46.89,0,*6D
1515963676.87,18766,8.56,73336.8,-15.25,-46.89,-47.23,0,*6C
1515963678.13,18767,8.56,73334.8,-15.25,-47.03,-47.03,0,*6C
1515963679.38,18768,8.56,73336.8,-15.25,-47.03,-47.03,0,*63
1515963680.64,18769,8.56,73340.5,-15.25,-47.03,-47.03,0,*62
1515963681.88,18770,8.56,73340.0,-15.25,-46.89,-47.09,0,*63
1515963683.15,18771,8.56,73336.8,-15.25,-46.89,-47.03,0,*68
1515963684.41,18772,8.56,73338.3,-15.25,-46.89,-47.03,0,*6B
1515963685.68,18773,8.56,73336.0,-15.25,-47.03,-47.23,0,*6B
1515963686.91,18774,8.56,73336.0,-15.27,-47.09,-47.17,0,*63
1515963688.17,18775,8.5,73332.3,-15.25,-47.03,-47.03,0,*6F
1515963689.41,18776,8.56,73334.8,-15.27,-47.09,-47.17,0,*61
1515963690.68,18777,8.56,73338.0,-15.25,-46.89,-46.89,0,*6D
1515963691.94,18778,8.56,73334.5,-15.25,-46.89,-47.03,0,*61
1515963693.18,18779,8.56,73336.8,-15.25,-47.03,-47.09,0,*69
1515963694.44,18780,8.56,73334.0,-15.25,-47.03,-47.03,0,*65
1515963695.7,18781,8.56,73336.3,-15.25,-47.03,-46.89,0,*67
1515963696.97,18782,8.56,73338.0,-15.25,-46.89,-46.89,0,*67
1515963698.24,18783,8.56,73336.5,-15.25,-46.89,-47.03,0,*65
1515963699.5,18784,8.56,73334.3,-15.25,-46.89,-47.03,0,*62
1515963700.76,18785,8.56,73336.0,-15.25,-47.03,-47.03,0,*60
1515963702.03,18786,8.56,73338.0,-15.25,-46.89,-47.03,0,*60
1515963703.27,18787,8.56,73336.8,-15.25,-46.89,-47.09,0,*6B
1515963704.53,18788,8.56,73338.8,-15.25,-46.89,-47.03,0,*6E
1515963705.78,18789,8.56,73336.3,-15.25,-46.69,-46.83,0,*68
1515963707.04,18790,8.56,73338.8,-15.25,-46.69,-46.61,0,*6C
1515963708.3,18791,8.56,73336.5,-15.25,-46.61,-46.61,0,*65
1515963709.52,18792,8.56,73336.5,-15.25,-46.83,-46.83,0,*66
1515963710.79,18793,8.56,73336.0,-15.25,-46.89,-46.89,0,*67
1515963712.06,18794,8.56,73338.0,-15.25,-46.89,-46.89,0,*60
1515963713.31,18795,8.56,73332.8,-15.25,-46.83,-46.89,0,*6B
1515963714.55,18796,8.56,73338.5,-15.25,-46.89,-47.09,0,*6B
1515963715.82,18797,8.56,73338.5,-15.25,-46.89,-46.89,0,*63
1515963717.09,18798,8.56,73334.8,-15.25,-46.89,-46.89,0,*6C
1515963718.34,18799,8.56,73338.8,-15.23,-46.83,-46.89,0,*61
1515963719.61,18800,8.56,73336.0,-15.23,-46.89,-46.89,0,*64
1515963720.86,18801,8.56,73338.3,-15.23,-46.83,-46.89,0,*6F
1515963722.12,18802,8.56,73334.8,-15.25,-46.89,-47.03,0,*63
1515963723.36,18803,8.56,73334.8,-15.25,-46.89,-47.09,0,*68
1515963724.63,18804,8.56,73338.5,-15.23,-46.89,-47.03,0,*63
1515963725.87,18805,8.56,73336.5,-15.25,-46.89,-47.09,0,*6E
1515963727.14,18806,8.5,73334.5,-15.23,-46.89,-46.89,0,*62
1515963728.39,18807,8.56,73334.5,-15.23,-46.83,-46.89,0,*69
1515963729.66,18808,8.5,73332.0,-15.23,-46.89,-47.23,0,*6D
1515963730.9,18809,8.5,73332.8,-15.23,-46.89,-47.09,0,*64
1515963732.17,18810,8.56,73336.3,-15.23,-47.03,-47.23,0,*67
1515963733.38,18811,8.5,73332.0,-15.23,-47.09,-47.09,0,*64
1515963734.62,18812,8.56,73338.0,-15.23,-47.03,-47.09,0,*6D
1515963735.86,18813,8.5,73334.0,-15.23,-47.03,-47.09,0,*6C
1515963737.12,18814,8.56,73334.3,-15.23,-46.89,-47.03,0,*62
1515963738.37,18815,8.56,73338.0,-15.23,-46.83,-46.89,0,*6A
1515963739.64,18816,8.5,73332.8,-15.23,-46.89,-47.03,0,*60
1515963740.87,18817,8.56,73334.5,-15.23,-47.03,-47.09,0,*68
1515963742.14,18818,8.56,73332.3,-15.23,-47.03,-47.23,0,*6F
1515963743.4,18819,8.56,73336.0,-15.23,-47.03,-47.03,0,*6C
1515963744.67,18820,8.56,73336.3,-15.23,-46.89,-47.03,0,*65
1515963745.91,18821,8.56,73334.8,-15.23,-47.09,-47.23,0,*6F
1515963747.18,18822,8.56,73338.0,-15.23,-47.03,-47.23,0,*66
1515963748.42,18823,8.56,73334.3,-15.23,-46.97,-47.03,0,*69
1515963749.68,18824,8.5,73334.5,-15.23,-47.03,-47.03,0,*62
1515963750.95,18825,8.56,73332.8,-15.25,-46.89,-46.89,0,*65
1515963752.19,18826,8.56,73336.3,-15.25,-46.83,-47.03,0,*6F
1515963753.43,18827,8.56,73334.0,-15.25,-46.83,-46.89,0,*6D
1515963754.67,18828,8.56,73336.5,-15.25,-46.89,-47.09,0,*61
1515963755.94,18829,8.5,73334.5,-15.23,-47.03,-46.89,0,*6C
1515963757.18,18830,8.56,73332.8,-15.23,-46.83,-46.89,0,*6D
1515963758.41,18831,8.56,73336.8,-15.25,-46.83,-46.83,0,*60
1515963759.67,18832,8.56,73338.3,-15.25,-46.89,-47.03,0,*60
1515963760.94,18833,8.56,73336.3,-15.25,-46.89,-47.03,0,*61
1515963762.2,18834,8.5,73332.3,-15.25,-46.89,-47.03,0,*66
1515963763.48,18835,8.5,73332.3,-15.25,-46.89,-46.89,0,*64
1515963764.75,18836,8.56,73334.0,-15.23,-46.89,-46.89,0,*61
1515963765.97,18837,8.56,73334.0,-15.23,-46.83,-46.83,0,*60
1515963767.23,18838,8.56,73334.0,-15.21,-46.83,-46.83,0,*6D
1515963768.49,18839,8.5,73334.3,-15.23,-46.69,-46.61,0,*66
1515963769.73,18840,8.5,73334.3,-15.23,-46.83,-46.61,0,*6C
1515963770.98,18841,8.56,73336.5,-15.23,-46.83,-46.89,0,*6B
1515963772.25,18842,8.56,73336.3,-15.23,-46.89,-47.23,0,*63
1515963773.49,18843,8.56,73332.8,-15.23,-47.03,-47.09,0,*69
1515963774.75,18844,8.56,73336.8,-15.23,-47.03,-47.03,0,*64
1515963776.0,18845,8.56,73332.5,-15.21,-46.97,-46.97,0,*67
1515963777.23,18846,8.56,73334.0,-15.23,-47.03,-47.09,0,*6C
1515963778.5,18847,8.56,73334.8,-15.23,-46.89,-46.89,0,*67
1515963779.75,18848,8.56,73336.3,-15.23,-46.83,-46.89,0,*62
1515963781.02,18849,8.56,73334.8,-15.23,-46.89,-46.89,0,*69
1515963782.29,18850,8.56,73334.3,-15.23,-46.89,-47.03,0,*62
1515963783.53,18851,8.5,73334.3,-15.23,-46.89,-47.09,0,*69
1515963784.8,18852,8.56,73334.3,-15.23,-47.03,-47.23,0,*61
1515963786.03,18853,8.5,73332.5,-15.23,-47.03,-47.09,0,*68
1515963787.3,18854,8.56,73334.5,-15.23,-47.03,-47.23,0,*67
1515963788.57,18855,8.56,73336.0,-15.23,-47.03,-47.23,0,*66
1515963789.84,18856,8.56,73338.3,-15.23,-46.89,-46.89,0,*67
1515963791.08,18857,8.56,73334.0,-15.23,-47.03,-47.09,0,*6C
1515963792.31,18858,8.5,73334.5,-15.23,-47.03,-47.09,0,*63
1515963793.56,18859,8.56,73332.5,-15.23,-46.83,-46.89,0,*62
1515963794.8,18860,8.5,73334.0,-15.23,-46.83,-47.03,0,*6B
1515963796.07,18861,8.5,73334.3,-15.23,-46.89,-46.89,0,*63
1515963797.31,18862,8.56,73334.3,-15.23,-47.09,-47.03,0,*6A
1515963798.54,18863,8.5,73334.8,-15.23,-47.03,-47.09,0,*6B
1515963799.79,18864,8.5,73334.8,-15.23,-46.89,-47.09,0,*6F
1515963801.05,18865,8.5,73330.8,-15.23,-47.03,-47.23,0,*65
1515963802.29,18866,8.56,73334.5,-15.23,-47.03,-47.09,0,*6E
1515963803.54,18867,8.56,73334.0,-15.21,-46.97,-46.97,0,*67
1515963804.81,18868,8.56,73336.0,-15.23,-47.03,-46.89,0,*69
1515963806.08,18869,8.56,73334.0,-15.23,-46.89,-46.89,0,*6B
1515963807.33,18870,8.5,73332.3,-15.21,-46.83,-46.83,0,*61
1515963808.59,18871,8.56,73332.5,-15.21,-46.83,-46.83,0,*60
1515963809.84,18872,8.5,73334.5,-15.23,-46.89,-46.83,0,*6B
1515963811.09,18873,8.56,73334.5,-15.21,-46.83,-46.83,0,*62
1515963812.36,18874,8.5,73332.0,-15.23,-46.89,-47.03,0,*64
1515963813.61,18875,8.5,73334.5,-15.21,-46.75,-46.83,0,*6D
1515963814.88,18876,8.5,73334.3,-15.23,-46.89,-46.89,0,*65
1515963816.12,18877,8.5,73334.3,-15.23,-46.89,-47.09,0,*6D
1515963817.37,18878,8.56,73336.3,-15.23,-46.89,-47.09,0,*62
1515963818.63,18879,8.56,73336.5,-15.23,-46.89,-47.03,0,*69
1515963819.9,18880,8.56,73334.0,-15.23,-46.89,-47.03,0,*6F
1515963821.13,18881,8.56,73336.0,-15.23,-47.03,-47.09,0,*67
1515963822.37,18882,8.56,73336.0,-15.23,-47.03,-47.09,0,*64
1515963823.64,18883,8.56,73334.5,-15.21,-46.97,-47.03,0,*61
1515963824.91,18884,8.56,73334.3,-15.21,-46.97,-47.03,0,*66
1515963826.15,18885,8.5,73334.3,-15.23,-47.03,-47.31,0,*68
1515963827.42,18886,8.56,73336.5,-15.21,-46.97,-47.03,0,*64
1515963828.69,18887,8.5,73328.0,-15.23,-47.03,-47.23,0,*69
1515963829.96,18888,8.5,73332.3,-15.23,-47.03,-47.23,0,*66
1515963831.2,18889,8.5,73334.3,-15.21,-46.97,-47.17,0,*6E
1515963832.45,18890,8.5,73334.0,-15.23,-47.09,-47.23,0,*65
1515963833.68,18891,8.56,73338.8,-15.23,-47.03,-47.09,0,*66
1515963834.95,18892,8.5,73332.5,-15.23,-47.03,-47.23,0,*6D
1515963836.22,18893,8.5,73330.3,-15.23,-46.89,-46.89,0,*6E
1515963837.49,18894,8.5,73334.3,-15.23,-47.03,-46.89,0,*6A
1515963838.72,18895,8.56,73334.8,-15.23,-47.03,-47.09,0,*62
1515963839.98,18896,8.5,73334.3,-15.23,-47.03,-47.03,0,*6B
1515963841.25,18897,8.5,73334.0,-15.23,-47.03,-47.23,0,*68
1515963842.49,18898,8.5,73332.3,-15.23,-46.89,-47.09,0,*6C
1515963843.74,18899,8.5,73334.3,-15.23,-46.89,-47.09,0,*6D
1515963844.95,18900,8.5,73334.0,-15.23,-47.09,-47.09,0,*65
1515963846.19,18901,8.56,73336.0,-15.23,-47.03,-47.09,0,*6E
1515963847.45,18902,8.5,73334.8,-15.23,-47.03,-47.23,0,*65
1515963848.72,18903,8.5,73330.5,-15.23,-47.03,-47.23,0,*64
1515963849.99,18904,8.56,73336.0,-15.23,-47.03,-47.23,0,*63
1515963851.21,18905,8.56,73336.0,-15.23,-47.09,-47.31,0,*6B
1515963852.47,18906,8.5,73334.0,-15.25,-47.03,-47.23,0,*67
1515963853.71,18907,8.5,73334.0,-15.25,-47.09,-47.23,0,*6C
1515963854.97,18908,8.5,73332.0,-15.25,-47.03,-47.03,0,*6B
1515963856.21,18909,8.5,73334.0,-15.25,-47.03,-47.09,0,*60
1515963857.47,18910,8.5,73332.8,-15.27,-47.09,-47.37,0,*6D
1515963858.73,18911,8.5,73330.8,-15.25,-47.03,-47.23,0,*61
1515963859.95,18912,8.5,73332.8,-15.25,-47.09,-47.17,0,*6F
1515963861.19,18913,8.5,73332.8,-15.25,-47.09,-47.23,0,*69
1515963862.4,18914,8.56,73334.5,-15.25,-47.17,-47.31,0,*62
1515963863.62,18915,8.5,73332.5,-15.25,-47.09,-47.09,0,*67
1515963864.86,18916,8.5,73334.8,-15.25,-46.83,-46.89,0,*6E
1515963866.13,18917,8.5,73336.0,-15.25,-47.03,-47.23,0,*67
1515963867.35,18918,8.5,73334.8,-15.25,-47.09,-47.31,0,*61
1515963868.61,18919,8.5,73334.0,-15.25,-47.03,-47.03,0,*6B
1515963869.87,18920,8.5,73334.8,-15.25,-47.03,-47.23,0,*63
1515963871.14,18921,8.5,73332.0,-15.25,-47.03,-47.23,0,*62
1515963872.4,18922,8.5,73332.5,-15.25,-47.03,-47.03,0,*63
1515963873.67,18923,8.56,73336.5,-15.25,-46.89,-46.89,0,*62
1515963874.93,18924,8.5,73334.0,-15.25,-47.03,-47.23,0,*67
1515963876.17,18925,8.5,73334.0,-15.25,-47.03,-47.09,0,*6E
1515963877.4,18926,8.5,73334.3,-15.25,-47.03,-47.09,0,*6D
1515963878.67,18927,8.5,73332.5,-15.25,-46.89,-47.03,0,*65
1515963879.94,18928,8.5,73332.3,-15.25,-46.89,-47.23,0,*68
1515963881.18,18929,8.5,73334.5,-15.25,-47.03,-47.09,0,*62
1515963882.41,18930,8.5,73334.3,-15.27,-47.09,-47.17,0,*6D
1515963883.67,18931,8.5,73334.5,-15.25,-47.03,-47.23,0,*63
1515963884.91,18932,8.5,73334.5,-15.27,-47.09,-46.97,0,*66
1515963886.15,18933,8.5,73332.5,-15.25,-47.03,-47.09,0,*69
1515963887.38,18934,8.5,73332.5,-15.25,-47.03,-47.09,0,*6E
1515963888.62,18935,8.5,73334.5,-15.27,-47.17,-47.31,0,*63
1515963889.85,18936,8.5,73332.0,-15.27,-47.17,-47.31,0,*60
1515963891.12,18937,8.56,73338.5,-15.25,-47.03,-47.23,0,*65
1515963892.33,18938,8.5,73332.8,-15.25,-47.17,-47.31,0,*6C
1515963893.57,18939,8.5,73332.5,-15.27,-46.97,-47.17,0,*62
1515963894.8,18940,8.5,73334.8,-15.27,-47.17,-47.17,0,*65
1515963896.02,18941,8.5,73334.5,-15.25,-46.97,-47.17,0,*6F
1515963897.28,18942,8.5,73332.5,-15.27,-47.17,-47.23,0,*60
1515963898.51,18943,8.5,73332.0,-15.27,-47.09,-47.31,0,*6D
1515963899.79,18944,8.5,73332.3,-15.25,-46.89,-46.89,0,*63
1515963901.05,18945,8.5,73332.0,-15.25,-46.89,-47.03,0,*61
1515963902.29,18946,8.5,73332.3,-15.25,-47.09,-47.23,0,*69
1515963903.51,18947,8.5,73336.3,-15.25,-47.09,-47.17,0,*6F
1515963904.74,18948,8.5,73330.5,-15.27,-46.97,-47.17,0,*64
1515963905.98,18949,8.5,73332.8,-15.27,-46.97,-47.09,0,*6A
1515963907.24,18950,8.56,73336.5,-15.27,-46.89,-47.09,0,*6D
1515963908.48,18951,8.5,73334.8,-15.27,-46.97,-47.09,0,*63
1515963909.75,18952,8.5,73334.0,-15.27,-46.97,-46.89,0,*69
1515963910.99,18953,8.5,73334.5,-15.25,-46.89,-47.09,0,*6C
1515963912.23,18954,8.5,73332.8,-15.27,-46.97,-47.31,0,*6D
1515963913.45,18955,8.5,73332.0,-15.25,-47.09,-46.97,0,*65
1515963914.66,18956,8.5,73334.3,-15.25,-46.97,-47.09,0,*66
1515963915.9,18957,8.5,73334.8,-15.27,-46.97,-46.97,0,*63
1515963917.14,18958,8.56,73338.8,-15.27,-46.97,-47.09,0,*6A
1515963918.38,18959,8.5,73334.5,-15.27,-46.97,-47.17,0,*64
1515963919.61,18960,8.5,73332.8,-15.27,-47.17,-47.31,0,*63
1515963920.85,18961,8.5,73332.0,-15.27,-47.09,-47.31,0,*6D
1515963922.09,18962,8.5,73334.0,-15.27,-46.97,-47.17,0,*6C
1515963923.32,18963,8.5,73336.0,-15.27,-46.97,-47.09,0,*62
1515963924.56,18964,8.5,73334.8,-15.27,-46.97,-47.17,0,*6A
1515963925.79,18965,8.5,73332.3,-15.27,-47.09,-47.17,0,*6D
1515963927.03,18966,8.5,73332.3,-15.27,-47.17,-47.31,0,*65
1515963928.26,18967,8.5,73334.3,-15.27,-47.09,-47.17,0,*6F
1515963929.5,18968,8.5,73334.8,-15.27,-47.09,-46.97,0,*69
1515963930.74,18969,8.5,73334.8,-15.29,-46.89,-46.97,0,*6F
1515963931.99,18970,8.5,73334.8,-15.27,-46.97,-47.31,0,*6B
1515963933.23,18971,8.5,73336.0,-15.25,-46.89,-47.09,0,*6C
1515963934.46,18972,8.5,73332.3,-15.27,-46.97,-47.17,0,*6D
1515963935.7,18973,8.5,73332.0,-15.27,-47.09,-47.09,0,*65
1515963936.93,18974,8.5,73332.5,-15.27,-47.09,-47.17,0,*6D
1515963938.16,18975,8.5,73334.3,-15.27,-47.09,-47.17,0,*6C
1515963939.4,18976,8.5,73332.0,-15.27,-46.97,-47.17,0,*69
1515963940.64,18977,8.5,73334.3,-15.27,-47.09,-47.31,0,*6A
1515963941.9,18978,8.5,73338.0,-15.27,-47.03,-47.31,0,*6F
1515963943.13,18979,8.5,73334.5,-15.27,-47.09,-47.17,0,*60
1515963944.35,18980,8.5,73334.8,-15.29,-47.09,-47.17,0,*68
1515963945.61,18981,8.5,73332.5,-15.31,-47.17,-47.03,0,*6A
1515963946.82,18982,8.5,73334.5,-15.29,-47.09,-47.17,0,*6A
1515963948.04,18983,8.5,73330.3,-15.29,-47.17,-47.31,0,*60
1515963949.25,18984,8.5,73336.5,-15.29,-47.17,-47.31,0,*67
1515963950.52,18985,8.5,73332.8,-15.31,-46.97,-47.23,0,*65
1515963951.74,18986,8.5,73336.0,-15.29,-46.97,-47.09,0,*67
1515963952.95,18987,8.5,73336.3,-15.29,-47.09,-47.17,0,*6F
1515963954.17,18988,8.5,73334.0,-15.29,-47.09,-47.17,0,*60
1515963955.39,18989,8.5,73334.0,-15.29,-46.97,-47.09,0,*68
1515963956.65,18990,8.5,73338.0,-15.31,-47.03,-47.17,0,*6A
1515963957.87,18991,8.5,73334.8,-15.29,-46.97,-47.09,0,*61
1515963959.08,18992,8.5,73334.5,-15.29,-47.09,-47.17,0,*6B
1515963960.31,18993,8.5,73328.3,-15.31,-47.17,-47.17,0,*6C
1515963961.55,18994,8.5,73334.5,-15.27,-46.97,-47.17,0,*65
1515963962.76,18995,8.5,73334.0,-15.29,-47.17,-47.09,0,*6C
1515963964.05,18996,8.5,73332.5,-15.31,-47.03,-47.23,0,*6B
1515963965.27,18997,8.5,73334.5,-15.29,-47.09,-47.17,0,*6E
1515963966.56,18998,8.5,73338.0,-15.31,-47.03,-47.23,0,*65
1515963967.78,18999,8.5,73334.0,-15.29,-46.97,-47.09,0,*69
1515963969.04,19000,8.5,73334.3,-15.31,-47.17,-47.23,0,*69
1515963970.26,19001,8.5,73332.8,-15.29,-47.09,-47.17,0,*69
1515963971.47,19002,8.5,73334.0,-15.29,-47.09,-46.97,0,*63
1515963972.74,19003,8.5,73334.0,-15.31,-47.17,-47.23,0,*6A
1515963974.03,19004,8.5,73336.0,-15.31,-47.03,-47.23,0,*68
1515963975.3,19005,8.5,73332.3,-15.31,-47.17,-47.23,0,*6C
1515963976.52,19006,8.5,73334.5,-15.29,-46.97,-46.97,0,*61
1515963977.8,19007,8.5,73336.8,-15.31,-47.03,-47.03,0,*69
1515963979.09,19008,8.5,73334.8,-15.31,-47.03,-47.03,0,*66
1515963980.31,19009,8.5,73334.5,-15.29,-46.97,-47.09,0,*68
1515963981.52,19010,8.5,73334.5,-15.29,-46.97,-47.17,0,*6F
1515963982.77,19011,8.5,73336.0,-15.29,-46.89,-46.97,0,*68
1515963984.06,19012,8.5,73334.5,-15.31,-47.03,-47.23,0,*6F
1515963985.3,19013,8.5,73336.0,-15.31,-47.17,-47.17,0,*6C
1515963986.59,19014,8.5,73332.8,-15.31,-47.23,-47.37,0,*6E
1515963987.88,19015,8.5,73334.3,-15.31,-47.23,-47.23,0,*6A
1515963989.17,19016,8.5,73336.0,-15.31,-47.23,-47.37,0,*6C
1515963990.44,19017,8.5,73332.5,-15.31,-46.97,-47.23,0,*66
1515963991.69,19018,8.5,73334.0,-15.31,-46.97,-47.17,0,*6E
1515963992.98,19019,8.5,73338.3,-15.31,-47.03,-47.23,0,*64
1515963994.24,19020,8.5,73334.3,-15.31,-47.03,-46.97,0,*60
1515963995.51,19021,8.5,73334.3,-15.31,-46.97,-47.03,0,*61
1515963996.8,19022,8.5,73338.0,-15.31,-47.03,-47.03,0,*6E
1515963998.06,19023,8.5,73332.5,-15.31,-46.97,-47.03,0,*63
1515963999.32,19024,8.5,73336.3,-15.31,-47.03,-47.17,0,*6D
1515964000.62,19025,8.5,73338.8,-15.31,-47.23,-47.23,0,*69
1515964001.83,19026,8.5,73338.0,-15.29,-47.09,-47.17,0,*6C
1515964003.12,19027,8.5,73332.0,-15.35,-47.23,-47.37,0,*6A
1515964004.38,19028,8.5,73336.0,-15.35,-47.03,-47.17,0,*65
1515964005.67,19029,8.5,73334.5,-15.35,-47.03,-47.23,0,*63
1515964006.95,19030,8.5,73336.5,-15.31,-47.03,-47.03,0,*6D
1515964008.22,19031,8.5,73332.8,-15.31,-46.97,-47.03,0,*60
1515964009.51,19032,8.5,73340.5,-15.31,-47.03,-47.23,0,*6D
1515964010.8,19033,8.5,73332.3,-15.31,-47.03,-47.23,0,*6C
1515964012.08,19034,8.5,73338.3,-15.35,-47.03,-47.03,0,*6D
1515964013.37,19035,8.5,73332.3,-15.35,-47.03,-47.23,0,*6E
1515964014.66,19036,8.5,73334.0,-15.35,-47.03,-47.23,0,*6D
1515964015.9,19037,8.5,73336.3,-15.35,-47.17,-47.17,0,*6E
1515964017.18,19038,8.5,73334.5,-15.35,-47.03,-47.03,0,*61
1515964018.42,19039,8.5,73334.0,-15.37,-47.09,-47.23,0,*6A
1515964019.71,19040,8.5,73334.8,-15.35,-47.03,-47.23,0,*6C
1515964020.98,19041,8.5,73334.8,-15.35,-47.17,-47.23,0,*68
1515964022.19,19042,8.5,73338.8,-15.37,-47.09,-47.09,0,*6E
1515964023.45,19043,8.5,73336.0,-15.35,-46.97,-47.03,0,*61
1515964024.74,19044,8.5,73338.3,-15.35,-47.03,-47.23,0,*68
1515964026.0,19045,8.5,73332.3,-15.35,-47.03,-47.17,0,*6E
1515964027.29,19046,8.5,73334.3,-15.35,-47.03,-47.03,0,*68
1515964028.52,19047,8.5,73338.3,-15.35,-47.17,-47.31,0,*6D
1515964029.76,19048,8.5,73334.0,-15.37,-47.17,-47.23,0,*63
1515964031.05,19049,8.5,73334.3,-15.35,-47.23,-47.37,0,*62
1515964032.3,19050,8.5,73334.8,-15.37,-47.23,-47.31,0,*6E
1515964033.51,19051,8.5,73334.0,-15.37,-47.09,-47.09,0,*6C
1515964034.75,19052,8.5,73338.0,-15.37,-47.09,-47.23,0,*67
1515964036.02,19053,8.5,73334.3,-15.35,-47.17,-47.23,0,*6B
1515964037.23,19054,8.5,73334.3,-15.37,-47.17,-47.17,0,*69
1515964038.51,19055,8.5,73334.0,-15.35,-47.03,-47.03,0,*6A
1515964039.75,19056,8.5,73336.5,-15.37,-47.09,-47.23,0,*63
1515964040.99,19057,8.5,73332.3,-15.37,-47.03,-47.09,0,*60
1515964042.24,19058,8.5,73336.5,-15.37,-47.09,-47.23,0,*6D
1515964043.48,19059,8.5,73334.3,-15.35,-46.97,-46.97,0,*66
1515964044.72,19060,8.5,73338.5,-15.37,-47.09,-47.23,0,*66
1515964045.99,19061,8.5,73336.0,-15.39,-47.09,-47.23,0,*69
1515964047.23,19062,8.5,73338.3,-15.39,-47.09,-47.09,0,*62
1515964048.52,19063,8.5,73332.3,-15.39,-47.03,-47.23,0,*61
1515964049.76,19064,8.5,73338.0,-15.37,-47.09,-47.23,0,*62
1515964051.02,19065,8.5,73334.8,-15.37,-47.03,-47.03,0,*6B
1515964052.29,19066,8.5,73336.3,-15.37,-47.23,-47.23,0,*68
1515964053.53,19067,8.5,73338.8,-15.39,-47.09,-47.31,0,*6C
1515964054.78,19068,8.5,73336.5,-15.37,-47.09,-47.23,0,*6E
1515964056.07,19069,8.5,73332.8,-15.39,-47.23,-47.23,0,*69
1515964057.33,19070,8.5,73334.8,-15.39,-47.03,-47.09,0,*6B
1515964058.62,19071,8.5,73338.0,-15.39,-47.03,-47.23,0,*62
1515964059.88,19072,8.5,73334.3,-15.39,-47.09,-47.23,0,*6B
1515964061.13,19073,8.5,73334.8,-15.39,-47.09,-47.31,0,*69
1515964062.39,19074,8.5,73334.8,-15.39,-47.09,-47.23,0,*6D
1515964063.63,19075,8.5,73334.0,-15.41,-47.17,-47.37,0,*69
1515964064.85,19076,8.5,73332.5,-15.41,-47.17,-47.31,0,*6C
1515964066.12,19077,8.5,73334.5,-15.39,-47.09,-47.23,0,*6E
1515964067.34,19078,8.5,73334.0,-15.41,-46.97,-47.09,0,*60
1515964068.55,19079,8.5,73336.0,-15.41,-47.17,-47.09,0,*68
1515964069.8,19080,8.5,73336.3,-15.41,-47.09,-46.89,0,*68
1515964071.07,19081,8.5,73334.5,-15.39,-46.89,-46.83,0,*65
1515964072.29,19082,8.5,73332.3,-15.41,-47.09,-47.09,0,*63
1515964073.51,19083,8.5,73340.3,-15.41,-47.09,-47.09,0,*62
1515964074.73,19084,8.5,73332.3,-15.41,-47.09,-47.09,0,*65
1515964075.95,19085,8.5,73338.3,-15.41,-46.97,-47.09,0,*62
1515964077.18,19086,8.5,73334.8,-15.39,-47.09,-47.09,0,*68
1515964078.4,19087,8.5,73336.0,-15.41,-47.09,-47.09,0,*66
1515964079.62,19088,8.5,73338.0,-15.41,-47.09,-47.09,0,*69
1515964080.89,19089,8.5,73334.0,-15.39,-47.03,-46.83,0,*6E
1515964082.1,19090,8.5,73336.5,-15.41,-47.09,-47.09,0,*60
1515964083.37,19091,8.5,73336.0,-15.39,-47.03,-46.83,0,*67
1515964084.66,19092,8.5,73334.3,-15.39,-47.03,-47.23,0,*6F
1515964085.92,19093,8.5,73336.3,-15.39,-47.03,-47.09,0,*66
1515964087.18,19094,8.5,73334.8,-15.39,-47.03,-47.09,0,*61
1515964088.42,19095,8.5,73334.5,-15.39,-47.09,-47.09,0,*6A
1515964089.68,19096,8.5,73336.5,-15.39,-47.03,-47.09,0,*63
1515964090.89,19097,8.5,73336.5,-15.41,-47.17,-47.17,0,*67
1515964092.11,19098,8.5,73336.8,-15.41,-47.09,-47.17,0,*67
1515964093.38,19099,8.5,73332.5,-15.39,-47.09,-47.23,0,*6E
1515964094.59,19100,8.5,73334.3,-15.41,-47.17,-47.31,0,*6C
1515964095.88,19101,8.5,73334.0,-15.39,-47.03,-47.03,0,*66
1515964097.1,19102,8.5,73336.8,-15.41,-46.97,-47.09,0,*6C
1515964098.34,19103,8.5,73334.0,-15.41,-47.17,-47.37,0,*69
1515964099.6,19104,8.5,73338.0,-15.39,-47.09,-47.03,0,*69
1515964100.84,19105,8.5,73336.0,-15.39,-47.09,-47.09,0,*62
1515964102.1,19106,8.5,73334.8,-15.39,-47.09,-47.23,0,*69
1515964103.37,19107,8.5,73336.3,-15.39,-47.09,-47.23,0,*68
1515964104.59,19108,8.5,73334.5,-15.41,-47.31,-47.51,0,*66